Tracking 29892 objects as of 21-Nov-2024
HD Live streaming from Space Station
objects crossing your sky now

STARLINK-30541

Track STARLINK-30541 now!
10-day predictions
STARLINK-30541 is classified as:


NORAD ID: 58057
Int'l Code: 2023-158G
Perigee: 565.4 km
Apogee: 567.0 km
Inclination: 43.0 °
Period: 95.8 minutes
Semi major axis: 6937 km
RCS: Unknown
Launch date: October 13, 2023
Source: United States (US)
Launch site: AIR FORCE EASTERN TEST RANGE (AFETR)
Your satellite tracking list
Your tracking list is empty




NASA's NSSDC Master Catalog

Two Line Element Set (TLE):
1 58057U 23158G   24325.72688862  .00000102  00000-0  22648-4 0  9996
2 58057  43.0033  85.8352 0001153 291.5153  68.5566 15.02539919 62230
Source of the keplerian elements: AFSPC